sat.trackr.live / text

‹ back to catalog

ARABSAT-7B (BADR-8)

NORAD 56757 · 2023-075A

PAYLOAD ACTIVE UNKNOWN

§ Identity

Operator
Country
AB
Launch date
2023-05-27
Launch site
AFETR
Launch vehicle
Mass (kg)
RCS (m²)

Purposes: comms

External: N2YO · Heavens-Above · Gunter

§ Orbital elements

Epoch: 2026-05-24T21:01:18.412320Z

Period
1,436.10 min
Inclination
0.0812°
Eccentricity
0.0004940
Mean motion
1.00271605 rev/d
Perigee alt
35,765.8 km
Apogee alt
35,807.5 km
Semi-major
42,164.8 km
B*
0.0000e+0
RAAN
32.0238°
Arg perigee
347.3899°
Mean anomaly
204.3756°
Rev number
1,088

§ Raw data

ARABSAT-7B (BADR-8)1 56757U 23075A   26144.87590755  .00000141  00000+0  00000+0 0  99942 56757   0.0812  32.0238 0004940 347.3899 204.3756  1.00271605 10887

JSON: /api/v1/satellites/56757 · /tle

For live sub-satellite position, see the globe view (requires WebGL).

§ Visibility from observer

Set your observer location to see the next 7 days of passes ≥ 10°. The values pass through the URL so the page stays shareable.

No JS? Fill the form by hand. The geolocation button needs JavaScript.